Long Beach, CA

9:49 PM PDT on September 21, 2017 (GMT -0700)
Long Beach

Weather History for KLGB - November, 2013

Change the Weather History Date:

Sunday, November 3, 2013

  Actual Average Record
Temperature  
Mean Temperature 65 °F 64 °F  
Max Temperature 68 °F 75 °F 100 °F (2010)
Min Temperature 61 °F 54 °F 44 °F (1990)
Degree Days  
Heating Degree Days 0 2  
Month to date heating degree days 0 6  
Since 1 July heating degree days 24 27  
Cooling Degree Days 0 1  
Month to date cooling degree days 7 5  
Year to date cooling degree days 1195 1109  
Growing Degree Days 15 (Base 50)    
Moisture  
Dew Point 52 °F    
Average Humidity 67    
Maximum Humidity 78    
Minimum Humidity 56    
Precipitation  
Precipitation 0.00 in 0.03 in 0.21 in (1960)
Month to date precipitation 0.00 0.08  
Year to date precipitation 3.06 9.39  
Since 1 July precipitation 0.19  
Sea Level Pressure  
Sea Level Pressure 29.88 in    
Wind  
Wind Speed 5 mph (ESE)    
Max Wind Speed 12 mph    
Max Gust Speed 16 mph    
Visibility 10 miles    
Events      
T = Trace of Precipitation, MM = Missing Value Source: NWS Daily Summary

Daily Weather History Graph

Daily Weather History Graph

Search for Another Location

Airport or City:

Trip Planner

Search our weather history database for the weather conditions in past years. The results will help you decide how hot, cold, wet, or windy it might be!

Date:

Astronomy

Nov. 03, 2013 Rise Set
Actual Time 6:13 AM PST 4:57 PM PST
Civil Twilight 5:48 AM PST 5:23 PM PST
Nautical Twilight 5:18 AM PST 5:53 PM PST
Astronomical Twilight 4:49 AM PST 6:22 PM PST
Moon 6:22 AM PST (11/3) 5:18 PM PST (11/3)
Length of Visible Light 11h 35m
Length of Day
10h 44m
New Moon, 0% of the Moon is Illuminated
Nov 3
New Moon
Nov 9
First Quarter
Nov 17
Full
Nov 25
Last Quarter
Dec 2
New

Hourly Weather History & Observations

Time (PST) Temp. Dew Point Humidity Pressure Visibility Wind Dir Wind Speed Gust Speed Precip Events Conditions
12:11 AM 62.6 °F 55.4 °F 77% 29.91 in 9.0 mi Calm Calm - N/A   Mostly Cloudy
12:53 AM 62.1 °F 55.9 °F 80% 29.90 in 10.0 mi East 4.6 mph - N/A   Overcast
1:53 AM 62.1 °F 55.9 °F 80% 29.91 in 10.0 mi East 3.5 mph - N/A   Overcast
1:09 AM 62.6 °F 55.4 °F 77% 29.91 in 10.0 mi East 4.6 mph - N/A   Overcast
1:53 AM 62.1 °F 55.0 °F 78% 29.89 in 10.0 mi ENE 4.6 mph - N/A   Overcast
2:53 AM 62.1 °F 54.0 °F 75% 29.89 in 10.0 mi ENE 4.6 mph - N/A   Overcast
3:53 AM 62.1 °F 54.0 °F 75% 29.88 in 10.0 mi East 3.5 mph - N/A   Overcast
4:53 AM 62.1 °F 53.1 °F 72% 29.88 in 10.0 mi East 4.6 mph - N/A   Overcast
5:53 AM 62.1 °F 52.0 °F 70% 29.90 in 10.0 mi East 3.5 mph - N/A   Overcast
6:53 AM 62.1 °F 52.0 °F 70% 29.91 in 10.0 mi East 4.6 mph - N/A   Overcast
7:53 AM 63.0 °F 52.0 °F 67% 29.92 in 10.0 mi East 5.8 mph - N/A   Overcast
8:53 AM 64.0 °F 52.0 °F 65% 29.93 in 10.0 mi ENE 3.5 mph - N/A   Mostly Cloudy
9:53 AM 64.9 °F 52.0 °F 63% 29.92 in 10.0 mi SSE 6.9 mph - N/A   Mostly Cloudy
10:53 AM 66.0 °F 50.0 °F 56% 29.91 in 10.0 mi SSE 6.9 mph - N/A   Mostly Cloudy
11:53 AM 66.9 °F 51.1 °F 57% 29.90 in 10.0 mi SSW 8.1 mph - N/A   Mostly Cloudy
12:18 PM 68.0 °F 51.8 °F 56% 29.89 in 10.0 mi Variable 6.9 mph - N/A   Mostly Cloudy
12:53 PM 66.9 °F 50.0 °F 54% 29.87 in 10.0 mi SSW 10.4 mph 16.1 mph N/A   Partly Cloudy
1:53 PM 66.0 °F 50.0 °F 56% 29.86 in 10.0 mi South 8.1 mph - N/A   Clear
2:53 PM 66.0 °F 51.1 °F 59% 29.85 in 10.0 mi SSW 8.1 mph - N/A   Clear
3:53 PM 64.0 °F 51.1 °F 63% 29.84 in 10.0 mi South 8.1 mph - N/A   Clear
4:53 PM 63.0 °F 51.1 °F 65% 29.83 in 10.0 mi South 5.8 mph - N/A   Clear
5:53 PM 63.0 °F 52.0 °F 67% 29.84 in 10.0 mi Calm Calm - N/A   Clear
6:53 PM 62.1 °F 52.0 °F 70% 29.85 in 10.0 mi Calm Calm - N/A   Clear
7:53 PM 62.1 °F 52.0 °F 70% 29.86 in 10.0 mi Calm Calm - N/A   Scattered Clouds
8:53 PM 62.1 °F 53.1 °F 72% 29.85 in 10.0 mi Calm Calm - N/A   Overcast
9:53 PM 62.1 °F 52.0 °F 70% 29.84 in 10.0 mi Calm Calm - N/A   Overcast
10:53 PM 63.0 °F 51.1 °F 65% 29.85 in 10.0 mi ESE 4.6 mph - N/A   Overcast